Back to year calendar

CHESTER SPRINT DISTANCE TRIATHLON

9th July 2000

Further information can be found at Chester Tri web site
Timing by David Ellis & Janine White - Results courtesy of Chester Tri Club
Competitor 173 (Robert Jenkins) was disqualified for a Helmet Violation
PosNameCatClubOverallSwimTrans 1BikeTrans2Run
1Stuart RobinsonM GTri-Lakeland57:4711:0200:5226:5600:4418:13
2David BaconM FBob Jackson R T58:3111:0401:1226:2100:5319:01
3Sean ClarkM ETriangle Asics59:1010:3800:4726:5300:4820:04
4Andrew RidsdaleM FTriangle Asics59:2810:5701:0728:0800:5318:23
5Dan BrookM AN/A1:00:0110:1600:5526:4501:0021:05
6Sam BlanshardM ALeeds & Bradford Tri1:00:2111:2201:0827:1700:4819:46
7Chris SwatlandM GN/A1:00:4211:1701:2027:1001:0719:48
8Ian JohnM ABridgend County1:01:0409:3501:0728:2501:1920:38
9David AbelM EBolton Metro Tri Club /td>1:01:1312:0901:4326:5701:0019:24
10Stuart JamesM ABridgend1:01:1409:4001:1828:1700:5021:09
11Joseph RaffertyM AN/A1:01:2811:0901:1628:2800:5119:44
12Jonathon GrundyM BBolton Metro Tri Club1:02:0709:5901:0029:3500:5120:42
13David GilesM AN/A1:02:2710:2400:5527:5000:5222:26
14Del PitcherM FTotal Fitness Nottingham1:02:3811:0301:0329:3300:4320:16
15Chris StandidgeM DCity Of Chester Tri1:03:0010:4701:0329:3100:4520:54
16Derek MephamM HStirling Tri1:03:1712:5000:5928:3600:4520:07
17Ralph HoltM HBolton Metro Tri Club1:03:2713:5901:1727:3600:5019:45
18Paul TaylorM ATri Preston S C1:03:5310:0400:5331:5900:5320:04
19Chris KertonM ABridgend1:04:0211:0201:0030:4300:4120:36
20Paul HawkinsM CN/A1:04:0811:0701:3230:4600:4120:02
21Stuart BrownM ATyne Tri1:04:1010:0801:0832:0700:5219:55
22Matthew BurnettM CN/A1:04:2511:1201:3832:3100:5418:10
23Ian GarbettM GEllesmere Swim & Tri1:04:3311:5501:2228:1301:0222:01
24Helen TuckerF ABridgend County1:04:4310:4701:1030:5900:4920:58
25David MorganM GBolton Metro1:05:0212:3801:2529:4301:0820:08
26Tony CummingsM HBolton Metro Tri Club1:05:0513:2901:4728:0101:3120:17
27Laura DaviesF ATyne Tri1:05:0511:1400:5530:3700:4321:36
28Christopher BradleyM BWrexham Tri1:05:2811:2601:0030:3200:4521:45
29Jason PickfordM FN/A1:05:4113:1701:3430:0201:0019:48
30Nick FowlerM GMersey Tri1:05:4214:4701:1827:3501:0420:58
31Mark BruceM ASheffield Tri1:05:5611:1101:0930:1801:0122:17
32Chris RainfordM GG M C Fire Service1:06:4515:0301:2428:3201:0020:46
33Steve WilliamsonM DN/A1:06:4812:2501:3230:3000:5321:28
34James CaseyM FEsporta Tri1:07:0912:4201:3929:4500:4222:21
35Michael LisleM IMersey Tri1:07:1413:1001:3629:0101:0722:20
36Phillip GrundyM ATeam Viper S M S1:07:5312:1501:2430:2701:0022:47
37Keith NutterM EN/A1:08:0813:4301:2330:1800:4521:59
38Clare SpencerF ABarracuda Tri1:08:2111:0901:1131:1301:0023:48
39Gary MarshallM HN/A1:08:3414:1801:2031:1800:3721:01
40Phil BickerstaffM HTri Kinetics1:09:0014:2001:0030:1700:5322:30
41Andrew RickersM DCity Of Chester Tri1:10:0414:1801:2730:5501:0122:23
42Paul HitchenM FNational Fire Service Tri1:10:5515:4502:0628:5001:0123:13
43Steve ClintonM GUnattached1:11:0414:2001:4730:0000:5324:04
44Dave PreeceM EN/A1:11:2716:4502:2429:5100:5721:30
45Stephen WalterM ETri-Lakeland1:11:4314:3602:4330:2601:1622:42
46Aled WilliamsM GUniversity Of Warwick1:11:4413:3202:1631:1501:2423:17
47Philip NorthM GAireborough Tri1:11:5314:5901:2931:0200:5023:33
48Anthony ParsonageM GCity Of Chester1:11:5914:2202:1230:3201:0023:53
49Andrew ForsythM FN/A1:12:0218:5002:1027:2601:2922:07
50Christian WalkerM FTuff Fitty Tri Club1:12:2915:4101:3531:1200:5623:05
51Richard DunnM ATeam Viper S M S1:12:4312:5701:4333:2900:5323:41
52Daniel TrinderM ETeam Ketchup1:13:1319:3302:1031:0300:3819:49
53Myles PerryM EManchester Tri1:13:3515:3501:3932:3501:0822:38
54Simon GallagherM EN/A1:13:4017:2702:4731:4901:4519:52
55Paul WorthingtonM IStaffordshire Moorlands T1:13:4013:3802:5333:0001:2822:41
56Ian LaingM HWrexham Tri1:13:4414:3302:0532:3801:3322:55
57Martyn AngusM EN/A1:13:5615:0201:2333:1400:4523:32
58Helen DaleF BBlack Country Tri1:13:5807:0007:5934:2501:0123:33
59Lawrence WoodM AUnattached1:14:1311:4801:4534:4700:5424:59
60Fraser HandleyM AOldbury Tri1:14:3112:5901:3834:1801:1524:21
61Danny RogersonM IN/A1:14:3615:1801:5931:1500:4825:16
62Paul BishopM GN/A1:14:5114:2702:4631:4500:4725:06
63Andrew WhitakerM FUnattached1:15:1317:0001:5533:0201:0422:12
64Julie FletcherF FCity Of Chester Tri1:15:2315:5101:5735:3901:2320:33
65Mark TaylorM CBirmingham University Tri1:15:3917:0502:2333:1301:2621:32
66Robert HornerM FCondor Road Club1:15:4116:2501:4430:3501:2725:30
67Mark SwatlandM GN/A1:15:5517:2402:5530:3101:3623:29
68John BarrowcloughM GN/A1:16:0417:5503:3130:2700:4323:28
69William HowarthM IN/A1:16:2614:1402:4632:1901:2725:40
70Ian EdwardsM FN/A1:16:3815:0502:3533:5501:1923:44
71Adam BarnettM GOxford Tri1:17:1016:3301:4332:4001:2924:45
72Ashley McCraightM JN/A1:17:2515:1401:4933:2001:1325:49
73David DobsonM FN/A1:17:2817:4302:4431:3800:3824:45
74Brian BullenM MBolton Metro Tri Club1:17:3217:4502:4233:1101:4622:08
75Geoffrey McIntoshM HMersey Tri1:17:5517:4802:4433:0101:2522:57
76Julie HarrisonF GN/A1:18:0917:1901:4432:0401:1425:48
77Mark AthertonM FN/A1:18:1417:1203:2332:5800:4823:53
78Samuel SmithM IN/A1:18:2917:5902:1732:1501:1124:47
79Roderick JamesM HN/A1:19:1215:5602:1737:4401:1122:04
80Graham JacksonM GUnattached1:19:1817:1402:0233:5400:5825:10
81Andrew SmithM GEllesmere Swim & Tri1:19:3217:0702:3333:2101:1825:13
82Iain AirthM EN/A1:19:3315:5203:2235:1601:3723:26
83Patricia WilliamsF IManchester Tri1:19:4416:0201:5834:4001:1225:52
84Simon RichardsM FN/A1:19:5717:0302:3234:3701:1624:29
85Andrew CrookesM GRochdale Tri Club1:20:1818:0702:4533:2901:1724:40
86Andrew MitchellM EN/A1:20:1819:1601:5332:4801:0325:18
87Patrick ChestersM FTequila Slammers1:21:0115:5102:5134:0401:0127:14
88Tim ClarkeM GCity Of Chester Tri1:21:3214:2902:1535:5001:1427:44
89Chris BriffaM IWrexham Tri1:21:4119:2102:1933:3001:3924:52
90James McCoyM DN/A1:21:5116:1902:0036:3000:5726:05
91Tammy LewingtonF EManchester Tri1:22:4116:2403:4235:0901:4325:43
92David BroadfootM IN/A1:23:0121:5202:3434:1101:3322:51
93Jason JonesM EN/A1:23:0417:5402:1434:5601:0926:51
94Jeffrey SherrinM KManchester Tri1:23:2019:4201:5430:3700:5430:13
95Duncan DawsonM FN/A1:23:3416:5002:3033:521:06:121:36:34
96Ian DaltonM EN/A1:23:5417:0701:2737:1100:5527:14
97David DeavilleM HN/A1:23:5819:1502:3435:4300:4525:41
98Michael SearleM GHelsby Running Club1:24:1324:1702:1334:5700:3722:09
99Greg CurrillM FUnattached1:25:2217:3303:1239:4100:5024:06
100Edward RoseM HN/A1:25:2417:3604:0631:4700:4631:09
101Phil HollinsM IRochdale Tri1:25:4916:2203:4138:5701:0625:43
102Robert McCraightM AN/A1:28:1419:0703:3236:4101:0327:51
103John WillcoxM GN/A1:28:2519:0803:0237:0301:0128:11
104Helen BinnsF FN/A1:29:2014:1003:0938:5801:1731:46
105Joanna WeedonF DManchester Tri1:29:3715:0402:3839:4501:2530:45
106Teresa HollinsF IRochdale Tri1:30:0516:0603:3443:5500:4825:42
107Christopher PittM FN/A1:31:1219:0004:3140:4600:5126:04
108Marion DykesF HN/A1:33:2019:5104:1239:0001:2328:54
109Leo SimmonsM HN/A1:33:2321:1401:0043:4101:2826:00
110Jennifer McCraightF BN/A1:38:2720:4203:4143:3000:5629:38
111Brian ThornberM JN/A1:40:0017:0702:2552:4902:2325:16
112Robert BeswickM FN/A1:41:3424:0704:2042:1001:1029:47
113Jane DaviesF FN/A1:49:1821:0103:4248:3300:5535:07
114Saffron PriceF ETri-Lakeland1:53:3427:1005:4045:0002:1733:27
dnfCarine Van SchieF FManchester Tri23:59:5912:3801:1330:4623:59:5923:59:59
dnfRobert JenkinsM FTrainstation23:59:5930:1504:1842:3001:2223:59:59
dnfKenneth GarrettM IRossendale Tri23:59:5913:0701:2731:2623:59:5923:59:59
dnfNeil MercerM GG M C Fire Service23:59:5923:59:5923:59:5923:59:5923:59:5923:59:59
dnfPeter GreeneM FN/A23:59:5923:59:5923:59:5923:59:5923:59:5923:59:59
dnfMark DoyleM FCity Of Chester Tri23:59:5923:59:5923:59:5923:59:5923:59:5923:59:59
dnfAngie TrotterF FManchester Tri23:59:5923:59:5923:59:5923:59:5923:59:5923:59:59
dnfRobert CollobyM FN/A23:59:5923:59:5923:59:5923:59:5923:59:5923:59:59
dnfMargaret HowardF GMersey Tri23:59:5923:59:5923:59:5923:59:5923:59:5923:59:59
dnfIan McDonaghM LUnattached23:59:5923:59:5923:59:5923:59:5923:59:5923:59:59
dnfMike IrelandM GPlaytime Productions23:59:5923:59:5923:59:5923:59:5923:59:5923:59:59
dnfDavid SpeakmanM FUnattached23:59:5923:59:5923:59:5923:59:5923:59:5923:59:59